STARLINK-34515

Last updated on Sat Jul 19 2025 00:02:08 GMT+0000 (Coordinated Universal Time)

1 64712U 25142S 25199.58335648 -.01243768 00000+0 -21520-1 0 9995 2 64712 70.0001 194.6341 0004048 279.2062 182.5273 15.53410502 4055
UTC large
Height (km)
Speed (km/s)
/
Latitude / Longitude
Inclination (degrees)
Orbital Period (minutes)
Azimuth
Elevation
Range (km)
Doppler Factor

Next 0 passes for location: London (51.5072 / 0.1276)

Sorry there are no passes over London.